Location: B�rgermoos
(47.6500°N, 9.0667°E)
Time: 08:10:41
(UTC+00:00)

Vanguard 3 - Pass Details

Date: 06 August 2021
Orbit: 510 x 3260 km, 33.3° (Epoch: 16 September)

Event Time Altitude Azimuth Distance (km) Brightness Sun altitude
Rises 20:37:29 0° 272° (W) 6,269 12.4 -15.2°
Reaches altitude 10° 20:41:44 10° 264° (W) 5,558 11.9 -15.7°
Maximum altitude 20:57:00 36° 207° (SSW) 4,339 10.6 -17.4°
Enters shadow 21:08:41 20° 160° (SSE) 5,253 10.6 -18.6°
